Flag for U.S.A. Weather past 2 weeks in Inverness, Florida, U.S.A.

Now
81 °F

Warm.


Feels Like: 87 °F
Forecast: 70 / 88 °F
Wind: No wind

Location: The Villages

Current Time: Oct 2, 2014 at 10:49:53 AM

Latest Report: Oct 2, 2014 at 10:15 AM


Visibility: 10 mi

Pressure: 29.97 "Hg

Humidity: 89%

Dew point: 77 °F

Location of InvernessLocation

Historic Weather in Inverness — Graph

°F

Inverness temperature yesterday

Maximum temperature yesterday: 86 °F (at 2:55 PM)
Minimum temperature yesterday: 75 °F (at 12:15 AM)
Average temperature yesterday: 79 °F

Past Weeks' High & Low Weather Summary

 TemperatureHumidityPressure
High91 °F (Sep 18, 3:55 PM)100% (Sep 18, 12:55 AM)30.05 "Hg (Sep 18, 12:55 AM)
Low68 °F (Sep 25, 5:15 AM)49% (Sep 18, 3:55 PM)29.72 "Hg (Sep 30, 3:55 AM)
Average77 °F89%29.88 "Hg
* Reported Sep 17 9:15 AM — Oct 2 9:55 AM, Inverness, Weather by CustomWeather, © 2014

Note: Actual official high and low records may vary slightly from our data, if they occured in-between our weather recording intervals... More about our weather records

Advertising

Inverness weather history for previous 24 hours

 ConditionsComfort  
Time TempWeatherWind HumidityBarometerVisibility
9:55 AM
Oct 2
81 °FWarm.No wind89%29.96 "Hg10 mi
9:35 AM79 °FWarm.No wind94%29.96 "Hg10 mi
9:15 AM77 °FWarm.No wind94%29.96 "Hg9 mi
8:55 AM77 °FWarm.No wind94%29.95 "Hg9 mi
8:35 AM75 °FMild.No wind100%29.94 "Hg9 mi
8:15 AM75 °FMild.No wind100%29.94 "Hg9 mi
7:55 AM75 °FMild.No wind100%29.93 "Hg8 mi
7:35 AM73 °FFog.No wind100%29.93 "Hg6 mi
7:15 AM75 °FFog.No wind100%29.92 "Hg5 mi
6:55 AM75 °FMild.No wind100%29.92 "Hg8 mi
6:35 AM75 °FMild.No wind100%29.92 "Hg7 mi
6:15 AM75 °FMild.No wind100%29.91 "Hg8 mi
5:55 AM75 °FMild.No wind100%29.90 "Hg8 mi
5:15 AM75 °FMild.No wind100%29.89 "Hg7 mi
4:55 AM75 °FMild.No wind100%29.89 "Hg8 mi
4:35 AM75 °FMild.No wind100%29.88 "Hg8 mi
4:15 AM75 °FMild.No wind100%29.88 "Hg9 mi
3:55 AM75 °FMild.No wind100%29.89 "Hg9 mi
3:35 AM75 °FMild.No wind100%29.89 "Hg10 mi
3:15 AM75 °FMild.No wind100%29.89 "Hg10 mi
2:55 AM75 °FMild.No wind100%29.89 "Hg10 mi
2:35 AM75 °FMild.No wind100%29.89 "Hg10 mi
2:15 AM75 °FMild.No wind100%29.90 "Hg10 mi
1:55 AM75 °FMild.No wind100%29.89 "Hg9 mi
1:35 AM77 °FWarm.No wind94%29.89 "Hg10 mi
1:15 AM77 °FWarm.No wind94%29.89 "Hg10 mi
12:55 AM77 °FWarm.No wind94%29.90 "Hg10 mi
12:35 AM77 °FWarm.No wind94%29.90 "Hg10 mi
12:15 AM77 °FWarm.No wind94%29.90 "Hg10 mi
11:55 PM
Oct 1
77 °FWarm.No wind94%29.91 "Hg10 mi
11:35 PM77 °FWarm.No wind94%29.91 "Hg10 mi
11:15 PM77 °FWarm.No wind94%29.91 "Hg10 mi
10:55 PM77 °FWarm.No wind94%29.90 "Hg10 mi
10:15 PM79 °FWarm.No wind89%29.90 "Hg10 mi
9:55 PM79 °FWarm.No wind89%29.90 "Hg10 mi
9:15 PM79 °FWarm.No wind89%29.89 "Hg10 mi
8:55 PM79 °FWarm.No wind89%29.88 "Hg10 mi
8:15 PM79 °FWarm.No wind89%29.86 "Hg10 mi
7:55 PM81 °FWarm.No wind84%29.85 "Hg10 mi
7:35 PM81 °FWarm.No wind84%29.84 "Hg10 mi
7:15 PM81 °FWarm.No wind84%29.84 "Hg10 mi
6:55 PM81 °FWarm.No wind84%29.83 "Hg10 mi
6:35 PM81 °FWarm.No wind84%29.83 "Hg10 mi
6:15 PM81 °FWarm.No wind89%29.82 "Hg10 mi
5:55 PM82 °FWarm.No wind79%29.82 "Hg10 mi
5:35 PM82 °FWarm.No wind84%29.82 "Hg10 mi
5:15 PM84 °FWarm.No wind74%29.81 "Hg10 mi
4:55 PM84 °FWarm.No wind74%29.81 "Hg10 mi
4:15 PM86 °FWarm.No wind70%29.82 "Hg10 mi
3:55 PM86 °FWarm.No wind70%29.82 "Hg10 mi
3:35 PM84 °FWarm.No wind74%29.82 "Hg10 mi
3:15 PM86 °FWarm.No wind70%29.81 "Hg10 mi
2:55 PM86 °FWarm.No wind70%29.82 "Hg10 mi
2:15 PM84 °FWarm.No wind74%29.83 "Hg10 mi
1:55 PM84 °FWarm.No wind74%29.83 "Hg10 mi
1:35 PM84 °FWarm.No wind74%29.84 "Hg10 mi
1:15 PM84 °FWarm.No wind79%29.85 "Hg10 mi
12:55 PM84 °FWarm.No wind74%29.85 "Hg10 mi
12:35 PM82 °FWarm.No wind79%29.85 "Hg10 mi
12:15 PM84 °FWarm.No wind74%29.85 "Hg10 mi
11:55 AM84 °FWarm.No wind79%29.86 "Hg10 mi
11:35 AM82 °FWarm.No wind84%29.86 "Hg10 mi
11:15 AM82 °FWarm.No wind79%29.86 "Hg10 mi
10:55 AM81 °FWarm.No wind84%29.86 "Hg10 mi
10:35 AM81 °FWarm.No wind84%29.86 "Hg10 mi
10:15 AM79 °FWarm.No wind89%29.85 "Hg10 mi
Weather by CustomWeather, © 2014

See weather overviewHow to use our weather pages